Location: Bankholzen
(47.7085°N, 8.9303°E)
Time: 06:35:58
(UTC+00:00)

Daily predictions for brighter satellites

Satellite Brightness Start Highest point End
(mag) Time Altitude Azimuth Time Altitude Azimuth Time Altitude Azimuth
Cosmos 2100 Rocket 4.2 19:57:01 10° N 20:03:19 60° ENE 20:09:33 10° SSE
USA 81 4.1 19:58:59 10° N 20:04:18 90° W 20:09:34 10° S
ERS-2 3.7 20:01:42 10° N 20:05:09 39° WNW 20:08:33 10° SW
ARIANE 5 R/B 3.5 20:01:47 10° SE 20:05:53 37° ENE 20:10:02 10° N
Cosmos 1315 Rocket 4.1 20:02:09 10° NNW 20:06:05 42° W 20:09:56 10° SSW
Meteor 2-20 Rocket 4.5 20:00:00 10° S 20:06:05 76° E 20:12:12 10° NNE
BREEZE-M DEB (TANK) 2.7 20:04:37 10° SW 20:06:53 39° SE 20:10:52 10° ENE
ATLAS 3B R/B 3.1 20:01:15 10° S 20:07:07 37° ESE 20:13:10 10° NE
Cosmos 1707 3.4 20:03:54 10° SSW 20:07:44 59° WNW 20:11:37 10° N
IGS 5A 3.7 20:04:54 10° S 20:09:02 72° WSW 20:13:14 10° NNW
NOSS 3-2 (C) 4.4 20:05:08 10° WSW 20:10:46 55° NW 20:17:20 10° NE
Cosmos 1461 3.1 20:06:48 10° NW 20:10:59 64° WSW 20:14:58 10° SSE
ATLAS CENTAUR R/B 1.9 20:09:22 10° NNW 20:13:38 59° NE 20:18:09 10° SE
Cosmos 2173 Rocket 4.1 20:09:57 10° N 20:16:21 70° E 20:22:41 10° SSE
Cosmos 405 4.2 20:13:50 10° NNE 20:16:49 26° ENE 20:19:47 10° SE
SL-8 R/B 4.1 20:12:57 10° WNW 20:17:37 52° SSW 20:22:16 10° SE
Cosmos 1452 Rocket 4.0 20:14:27 10° SSW 20:19:42 66° WNW 20:24:59 10° NNE
Cosmos 2016 Rocket 4.3 20:14:18 10° N 20:20:14 50° ENE 20:26:10 10° SSE
SL-4 R/B 3.7 20:18:45 10° SSE 20:20:50 14° SE 20:22:52 10° ESE
Cosmos 2219 Rocket 2.9 20:18:05 10° S 20:23:10 35° ESE 20:28:15 10° NE
Cosmos 2333 Rocket 2.7 20:19:06 10° S 20:24:27 42° ESE 20:29:47 10° NE
FALCON 9 DEB 3.5 20:23:23 10° SSW 20:26:16 35° SE 20:29:10 10° ENE
ERS-1 Rocket 3.4 20:24:11 10° SE 20:29:01 50° ENE 20:33:53 10° N
Cosmos 1025 Rocket 3.2 20:25:01 10° S 20:29:18 58° E 20:33:35 10° NNE
Geosat 4.4 20:24:40 10° SE 20:29:34 55° NE 20:34:29 10° NNW
Lacrosse 5 rocket 0.9 20:26:16 10° SW 20:29:58 82° SE 20:33:35 10° NE
Cosmos 1844 3.8 20:24:53 10° NNW 20:30:29 82° WSW 20:36:02 10° SSE
Cosmos 1536 Rocket 4.4 20:28:16 10° SSE 20:32:19 35° E 20:36:22 10° NNE
Spot 2 Rocket 3.5 20:28:44 10° SSE 20:33:46 78° ENE 20:38:53 10° NNW
Cosmos 1725 Rocket 4.3 20:28:36 10° N 20:34:41 56° ENE 20:40:27 11° SSE
Cosmos 1331 Rocket 4.0 20:31:30 10° SSW 20:36:45 84° ESE 20:42:04 10° NNE
Cosmos 1900 4.5 20:34:34 10° NW 20:39:28 69° WSW 20:43:50 13° SSE
DNEPR-1 R/B 3.5 20:35:32 10° NW 20:39:46 82° NE 20:43:36 14° SE
FALCON 9 DEB 2.8 20:38:47 10° SW 20:41:51 63° SSE 20:44:55 10° ENE
CENTAUR R/B 4.3 20:37:57 10° W 20:43:49 38° NNW 20:50:44 10° NE
CARTOSAT-1 3.6 20:40:17 11° SSE 20:44:28 90° ENE 20:48:50 10° NNW
Cosmos 2237 Rocket 3.8 20:41:58 12° SE 20:44:39 16° E 20:47:55 10° ENE
Terra 2.3 20:41:19 13° SE 20:45:21 48° ENE 20:49:57 10° N
SL-14 R/B 3.5 20:41:35 10° S 20:45:31 55° E 20:49:28 10° NNE
SPOT 1/Viking Rocket 4.0 20:41:26 10° S 20:46:29 60° WSW 20:51:35 10° NNW
Cosmos 2360 Rocket 2.6 20:41:46 10° SW 20:47:23 68° WNW 20:53:02 10° NNE
Cosmos 1674 3.6 20:44:01 10° SSW 20:47:36 48° WNW 20:51:13 10° N
CZ-2C R/B 4.1 20:43:08 10° N 20:47:54 70° WNW 20:52:38 10° SSW
FALCON 9 DEB 2.8 20:46:45 10° SW 20:49:49 58° SSE 20:52:53 10° ENE
Cosmos 1953 3.4 20:47:35 10° NNW 20:51:27 43° W 20:55:17 10° SSW
Cosmos 2322 Rocket 3.7 20:46:20 10° WSW 20:51:43 41° NW 20:57:07 10° NNE
SL-16 R/B 4.1 20:46:47 10° WSW 20:51:54 34° NW 20:57:02 10° NNE
FALCON 9 DEB 2.7 20:49:18 10° SW 20:52:23 73° SSE 20:55:30 10° ENE
Cosmos 1455 4.4 20:50:45 10° NE 20:52:47 14° ENE 20:54:47 10° E
SPOT 5 2.9 20:48:16 13° SSE 20:52:50 78° ENE 20:57:41 10° NNW
Cosmos 1975 Rocket 4.3 20:50:43 10° SSW 20:54:53 42° WNW 20:59:06 10° N
Cosmos 1802 Rocket 4.2 20:49:13 10° N 20:55:31 79° W 21:01:52 10° S
Meteor 1-24 Rocket 4.1 20:51:25 13° SSE 20:55:51 43° E 21:01:03 10° NNE
Cosmos 1459 Rocket 4.3 20:50:55 10° NNW 20:56:54 63° W 21:02:53 10° S
H-2A R/B 4.3 20:53:38 10° NNE 20:57:21 33° E 20:59:52 17° SSE
Cosmos 1302 Rocket 4.0 20:52:53 10° S 20:58:06 67° ESE 21:03:19 10° NNE
Cosmos 1300 2.6 20:59:45 10° N 21:03:36 79° E 21:06:20 18° SSE
Resurs 01 Rocket 3.9 21:02:36 10° SW 21:05:50 20° W 21:09:06 10° NW
USA 267 4.4 21:05:08 10° E 21:11:15 44° NNE 21:17:22 10° WNW
Cosmos 1340 2.9 21:07:43 10° SSW 21:11:28 70° WNW 21:15:15 10° N
Cosmos 2322 3.8 21:09:21 10° SSW 21:15:00 84° WNW 21:20:43 10° NNE
Cosmos 2278 Rocket 2.6 21:11:06 10° NNW 21:16:41 54° ENE 21:20:55 17° SE
COSMOS 2428 2.7 21:10:59 10° SSW 21:16:42 72° ESE 21:22:27 10° NNE
Cosmos 1844 Rocket 4.1 21:12:28 10° NW 21:17:23 31° WSW 21:22:18 10° SSW
Cosmos 389 Rocket 2.9 21:19:19 10° N 21:22:39 48° ENE 21:24:17 26° SE
NOSS 0 Rocket 4.3 21:17:59 15° S 21:22:47 44° ESE 21:28:39 10° NE
Cosmos 1726 Rocket 4.4 21:20:11 10° N 21:24:23 39° ENE 21:26:53 21° SE
Cosmos 1867 3.6 21:19:37 10° NW 21:25:08 87° SW 21:28:54 21° SE
Cosmos 968 Rocket 3.5 21:24:57 10° NNW 21:30:03 73° WSW 21:33:29 21° S
Cosmos 1626 4.2 21:31:29 10° SW 21:34:34 25° WNW 21:37:40 10° NNW
Cosmos 1486 Rocket 4.0 21:30:20 10° NNW 21:35:34 85° WSW 21:38:52 23° SSE
SJ 16-02 3.8 21:34:32 10° NNE 21:36:51 14° NE 21:39:08 10° E
Meteor 2-10 Rocket 3.4 21:34:22 10° NNW 21:39:28 89° WSW 21:42:36 23° S
Cosmos 1606 Rocket 3.6 21:35:38 10° N 21:40:07 71° E 21:42:32 26° SSE
Cosmos 2233 Rocket 4.1 21:34:50 10° NNW 21:40:59 76° W 21:45:35 19° S
Uosat 12 SS-18 rocket 4.2 21:37:01 10° SW 21:41:24 84° NW 21:46:34 10° NE
Cosmos 1992 Rocket 4.0 21:37:59 17° S 21:41:57 68° ESE 21:47:10 10° NNE
Cosmos 1943 Rocket 4.0 21:37:43 10° N 21:41:59 22° NE 21:46:13 10° E
ARIANE 5 R/B 4.3 21:38:39 10° SSW 21:42:24 26° W 21:46:13 10° NW
Cosmos 1892 Rocket 4.1 21:43:59 26° SSE 21:45:59 44° E 21:50:14 10° NNE
Cosmos 1346 Rocket 2.8 21:47:03 23° SSW 21:49:27 88° WNW 21:53:31 10° N
Cosmos 1447 Rocket 4.5 21:44:53 18° S 21:49:44 87° E 21:55:57 10° N
Cosmos 1354 Rocket 4.2 21:46:31 10° NNW 21:51:52 69° ENE 21:55:00 25° SE
ATLAS CENTAUR R/B 3.4 21:48:54 10° WNW 21:52:13 21° WSW 21:54:30 15° SSW
Cosmos 1980 3.8 21:51:14 21° S 21:55:02 59° ESE 22:00:38 10° NNE
Cosmos 1441 Rocket 4.4 21:54:42 25° ESE 21:55:38 28° E 21:58:55 10° NNE
BREEZE-M DEB (TANK) 3.5 21:45:39 10° SW 21:56:23 48° SSE 21:59:48 10° E
ATLAS 3B R/B 3.3 21:51:05 10° WSW 21:57:32 57° NW 22:04:16 10° NE
SL-4 R/B 1.8 21:55:50 10° SW 21:59:54 59° SSE 22:03:40 10° ENE
ALOS 2 3.9 21:57:54 19° ESE 22:00:12 31° ENE 22:04:04 10° N
FALCON 9 DEB 4.0 21:58:53 10° W 22:01:56 47° NNW 22:04:59 10° ENE
Cosmos 2219 Rocket 3.3 22:01:37 10° SW 22:07:01 43° NW 22:12:27 10° NNE
Cosmos 2333 Rocket 3.6 22:03:26 10° WSW 22:08:46 38° NW 22:14:06 10° NNE
Cosmos 1607 4.0 22:02:40 10° NW 22:09:08 80° SW 22:12:53 26° SSE
Lacrosse 5 rocket 3.4 22:06:19 10° WNW 22:09:24 25° NNW 22:12:27 10° NE
Cosmos 1703 3.9 22:08:43 32° SE 22:09:50 41° E 22:13:35 10° NNE
Cosmos 2228 3.8 22:07:33 10° NNW 22:11:46 45° W 22:14:06 23° SSW
Iridium 2 3.6 22:12:20 35° SSW 22:13:48 79° W 22:17:34 10° N
Meteor 2-1 Rocket 4.2 22:13:47 10° N 22:19:19 78° ENE 22:22:14 29° SSE
USA 215 3.3 22:13:05 10° ENE 22:19:30 55° SE 22:25:28 12° SSW
Terra 3.6 22:20:12 12° SW 22:23:21 22° W 22:27:05 10° NW
COBE Rocket 4.0 22:22:10 30° SSE 22:24:36 69° ENE 22:29:30 10° N
SL-16 R/B 3.0 22:23:55 27° SE 22:25:56 36° ESE 22:31:03 10° NE
Cosmos 2237 Rocket 2.2 22:23:44 19° SSW 22:27:55 86° WNW 22:33:36 10° NNE
Cosmos 1455 2.6 22:25:00 10° NNW 22:28:43 53° W 22:29:59 35° SSW
Cosmos 1184 Rocket 2.8 22:29:49 47° SW 22:30:34 71° WNW 22:33:49 10° N
Cosmos 1464 Rocket 4.0 22:24:25 10° N 22:30:49 84° W 22:34:26 28° S
Cosmos 1328 4.3 22:31:00 37° SE 22:31:54 45° E 22:35:38 10° NNE
Cosmos 2369 Rocket 3.8 22:31:16 10° NNW 22:36:15 29° NE 22:41:11 10° ESE
Cosmos 192 4.3 22:33:47 26° SSW 22:36:34 84° WNW 22:41:31 10° NNE
GEOS 3 Rocket 3.6 22:38:08 30° SSE 22:40:55 76° SW 22:46:18 10° NW
ATLAS CENTAUR R/B 3.3 22:40:44 24° SSW 22:44:06 67° SE 22:56:45 10° NE
Cosmos 1816 Rocket 4.4 22:47:50 30° S 22:50:59 76° E 22:57:08 10° NNE
USA 32 4.3 22:45:49 10° N 22:51:01 61° E 22:53:23 32° SSE
Aureole 3 4.4 22:47:47 10° N 22:51:28 40° ENE 22:53:19 27° SE
USA 267 3.3 22:47:18 10° ESE 22:53:51 80° NNE 23:00:25 10° NW
Okean 1-7 Rocket 3.8 22:54:15 32° SSW 22:56:10 63° WNW 23:00:35 10° N
Cosmos 1812 Rocket 3.7 22:53:30 10° N 22:57:50 63° ENE 22:59:21 38° SE
BREEZE-M DEB (TANK) 3.2 22:56:40 10° W 23:00:10 73° N 23:10:47 10° E
Cosmos 2278 Rocket 3.5 22:55:45 10° NW 23:00:25 27° WSW 23:02:45 21° SW
Cosmos 2058 Rocket 4.2 22:58:43 10° NNW 23:02:44 34° W 23:04:24 25° SW
Cosmos 2297 3.6 22:57:40 10° NNW 23:03:21 88° ENE 23:06:10 31° SSE
Cosmos 2034 Rocket 4.1 23:00:48 10° NNW 23:06:54 64° W 23:10:01 30° SSW
Thor Agena Rocket 4.0 23:02:41 10° NNE 23:07:48 50° E 23:09:46 33° SSE
NOSS 2-3 (C) 4.0 23:07:21 38° SE 23:07:58 41° ESE 23:12:24 10° NE
SAR-Lupe-2 3.6 23:05:24 10° NNE 23:08:59 67° ESE 23:09:33 55° SSE
SJ 16-02 1.2 23:11:40 10° NNW 23:16:05 85° WSW 23:17:28 43° SSE
Cosmos 1174 4.4 23:14:18 30° SSW 23:17:10 81° SE 23:21:51 10° NE
Meteor 1-11 4.1 23:19:57 34° S 23:22:32 87° E 23:28:09 10° NNE
Meteor 1-27 4.3 23:18:55 10° N 23:24:30 73° ENE 23:27:14 31° SSE
GP-B 3.0 23:20:04 10° N 23:24:32 87° E 23:26:01 42° S
Meteor 1-4 Rocket 3.4 23:23:04 10° NNW 23:26:14 34° W 23:26:36 32° WSW
Cosmos 1943 Rocket 2.1 23:20:50 10° NNW 23:26:22 79° WSW 23:28:53 34° SSE
Nimbus 7 Rocket 4.4 23:20:27 10° NNE 23:26:32 85° WNW 23:29:48 30° SSW
Cosmos 1825 Rocket 4.0 23:25:14 36° SE 23:26:37 51° E 23:30:57 10° NNE
Cosmos 1892 3.2 23:30:16 40° SE 23:31:07 48° E 23:34:52 10° NNE
MTI 4.1 23:29:11 10° N 23:32:09 49° WNW 23:32:27 46° W
Cosmos 1437 Rocket 4.5 23:32:02 10° NNE 23:35:19 25° ENE 23:37:15 17° ESE
ALOS 2 3.8 23:35:17 26° SW 23:36:30 30° W 23:40:25 10° NNW
Cosmos 1869 3.6 23:32:45 10° N 23:36:50 63° E 23:38:08 40° SE
CZ-2D R/B 4.3 23:34:49 10° ENE 23:37:19 13° E 23:39:48 10° ESE
Tsikada Rocket 4.2 23:34:13 27° SSW 23:37:37 62° WNW 23:43:44 10° N
Cosmos 1943 4.1 23:36:45 26° SE 23:38:49 34° ESE 23:43:52 10° NE
SL-4 R/B 2.6 23:35:42 10° W 23:39:33 51° NNW 23:43:08 10° ENE
Cosmos 990 Rocket 4.1 23:34:53 10° NNW 23:40:06 72° ENE 23:42:50 28° SE
Lacrosse 4 Rocket 4.0 23:37:31 10° N 23:40:29 19° NE 23:43:24 10° E
EO 1 Del DPAF 3.8 23:38:20 10° NNE 23:41:55 43° E 23:42:38 38° SE
USA 229 DEB 3.6 23:38:46 30° SSW 23:42:00 65° ESE 23:48:45 10° NE
USA 229 3.6 23:38:53 31° SSW 23:42:06 64° ESE 23:48:51 10° NE
NOSS 8 (F) 4.0 23:43:55 74° SE 23:43:58 75° SE 23:46:57 10° NE
Cosmos 1603 4.4 23:46:12 29° SSE 23:48:27 42° ESE 23:53:45 10° NE
Lacrosse 5 rocket 4.0 23:46:47 10° NW 23:49:25 19° N 23:52:03 10° NE
NOSS 3-1 (C) 3.3 23:46:44 24° SW 23:50:09 79° NW 23:56:35 10° NE
Cosmos 1953 Rocket 3.7 23:50:42 38° SSE 23:52:09 61° E 23:56:31 10° NNE
SL-16 R/B 4.1 23:47:39 10° ESE 23:52:55 31° ENE 23:58:13 10° N
Cosmos 1408 2.6 23:53:09 52° SSE 23:53:54 73° E 23:57:36 10° NNE
Cosmos 1825 2.9 23:54:28 34° SE 23:55:25 42° E 23:58:59 10° NNE
USA 306 4.5 23:56:43 21° SE 23:56:43 21° SE 23:59:38 10° E
